Time,TemperatureF,DewpointF,PressureIn,WindDirection,WindDirectionDegrees,WindSpeedMPH,WindSpeedGustMPH,Humidity,HourlyPrecipIn,Conditions,Clouds,dailyrainin,SoftwareType,DateUTC
2013-05-18 00:04:00,66.7,63.7,29.81,ESE,112,2.2,-999.0,90,-99.99,,,0.00,Acu-Link.com,2013-05-18 05:04:00,
2013-05-18 00:20:00,66.4,63.7,29.81,East,90,3.7,-999.0,91,-99.99,,,0.00,Acu-Link.com,2013-05-18 05:20:00,
2013-05-18 00:35:00,65.8,63.1,29.81,ESE,112,2.2,-999.0,91,-99.99,,,0.00,Acu-Link.com,2013-05-18 05:35:00,
2013-05-18 00:50:00,65.5,63.1,29.81,ESE,112,2.7,-999.0,92,-99.99,,,0.00,Acu-Link.com,2013-05-18 05:50:00,
2013-05-18 01:05:00,65.1,62.7,29.81,SSE,157,2.7,-999.0,92,-99.99,,,0.00,Acu-Link.com,2013-05-18 06:05:00,
2013-05-18 01:20:00,64.6,62.5,29.81,ESE,112,1.7,-999.0,93,-99.99,,,0.00,Acu-Link.com,2013-05-18 06:20:00,
2013-05-18 01:35:00,64.2,62.4,29.81,ESE,112,2.2,-999.0,94,-99.99,,,0.00,Acu-Link.com,2013-05-18 06:35:00,
2013-05-18 01:50:00,63.9,62.1,29.81,ESE,112,1.7,-999.0,94,-99.99,,,0.00,Acu-Link.com,2013-05-18 06:50:00,
2013-05-18 02:05:00,63.9,62.4,29.81,ESE,112,2.2,-999.0,95,-99.99,,,0.00,Acu-Link.com,2013-05-18 07:05:00,
2013-05-18 02:20:00,63.5,62.0,29.81,East,90,3.2,-999.0,95,-99.99,,,0.00,Acu-Link.com,2013-05-18 07:20:00,
2013-05-18 02:36:00,63.3,61.8,29.81,ESE,112,2.2,-999.0,95,-99.99,,,0.00,Acu-Link.com,2013-05-18 07:36:00,
2013-05-18 02:51:00,63.3,61.8,29.81,ESE,112,1.7,-999.0,95,-99.99,,,0.00,Acu-Link.com,2013-05-18 07:51:00,
2013-05-18 03:07:00,63.1,61.6,29.81,ESE,112,0.0,-999.0,95,-99.99,,,0.00,Acu-Link.com,2013-05-18 08:07:00,
2013-05-18 03:23:00,63.1,61.6,29.81,ESE,112,0.0,-999.0,95,-99.99,,,0.00,Acu-Link.com,2013-05-18 08:23:00,
2013-05-18 03:38:00,63.1,61.9,29.82,ESE,112,2.2,-999.0,96,-99.99,,,0.00,Acu-Link.com,2013-05-18 08:38:00,
2013-05-18 03:53:00,63.0,61.8,29.82,ESE,112,1.7,-999.0,96,-99.99,,,0.00,Acu-Link.com,2013-05-18 08:53:00,
2013-05-18 04:08:00,62.8,61.6,29.82,ESE,112,2.2,-999.0,96,-99.99,,,0.00,Acu-Link.com,2013-05-18 09:08:00,
2013-05-18 04:23:00,62.4,61.2,29.82,NE,45,0.0,-999.0,96,-99.99,,,0.00,Acu-Link.com,2013-05-18 09:23:00,
2013-05-18 04:38:00,61.9,60.7,29.82,East,90,0.0,-999.0,96,-99.99,,,0.00,Acu-Link.com,2013-05-18 09:38:00,
2013-05-18 04:53:00,61.5,60.3,29.82,ESE,112,0.0,-999.0,96,-99.99,,,0.00,Acu-Link.com,2013-05-18 09:53:00,
2013-05-18 05:09:00,61.9,61.0,29.82,East,90,2.2,-999.0,97,-99.99,,,0.00,Acu-Link.com,2013-05-18 10:09:00,
2013-05-18 05:24:00,62.1,61.5,29.83,SE,135,2.7,-999.0,98,-99.99,,,0.00,Acu-Link.com,2013-05-18 10:24:00,
2013-05-18 05:39:00,62.1,61.5,29.82,ESE,112,0.0,-999.0,98,-99.99,,,0.00,Acu-Link.com,2013-05-18 10:39:00,
2013-05-18 05:54:00,61.9,61.3,29.83,East,90,0.0,-999.0,98,-99.99,,,0.00,Acu-Link.com,2013-05-18 10:54:00,
2013-05-18 06:09:00,61.9,61.3,29.83,ESE,112,1.7,-999.0,98,-99.99,,,0.00,Acu-Link.com,2013-05-18 11:09:00,
2013-05-18 06:24:00,62.1,61.5,29.83,East,90,2.7,-999.0,98,-99.99,,,0.00,Acu-Link.com,2013-05-18 11:24:00,
2013-05-18 06:39:00,62.6,62.0,29.84,SE,135,2.7,-999.0,98,-99.99,,,0.00,Acu-Link.com,2013-05-18 11:39:00,
2013-05-18 06:54:00,63.3,62.7,29.83,ESE,112,2.7,-999.0,98,-99.99,,,0.00,Acu-Link.com,2013-05-18 11:54:00,
2013-05-18 07:09:00,64.2,63.6,29.83,ESE,112,2.2,-999.0,98,-99.99,,,0.00,Acu-Link.com,2013-05-18 12:09:00,
2013-05-18 07:24:00,65.1,64.2,29.84,ESE,112,4.7,-999.0,97,-99.99,,,0.00,Acu-Link.com,2013-05-18 12:24:00,
2013-05-18 07:40:00,66.2,64.7,29.84,SW,225,5.8,-999.0,95,-99.99,,,0.00,Acu-Link.com,2013-05-18 12:40:00,
2013-05-18 07:55:00,67.3,65.5,29.84,SW,225,2.7,-999.0,94,-99.99,,,0.00,Acu-Link.com,2013-05-18 12:55:00,
2013-05-18 08:10:00,68.7,66.0,29.84,SSE,157,2.2,-999.0,91,-99.99,,,0.00,Acu-Link.com,2013-05-18 13:10:00,
2013-05-18 08:25:00,69.6,65.9,29.85,SSE,157,2.2,-999.0,88,-99.99,,,0.00,Acu-Link.com,2013-05-18 13:25:00,
2013-05-18 08:40:00,70.7,66.0,29.85,South,180,1.7,-999.0,85,-99.99,,,0.00,Acu-Link.com,2013-05-18 13:40:00,
2013-05-18 08:55:00,71.6,65.8,29.85,SSW,202,2.2,-999.0,82,-99.99,,,0.00,Acu-Link.com,2013-05-18 13:55:00,
2013-05-18 09:10:00,72.9,66.4,29.85,SSE,157,2.7,-999.0,80,-99.99,,,0.00,Acu-Link.com,2013-05-18 14:10:00,
2013-05-18 09:25:00,72.9,66.0,29.86,ESE,112,3.7,-999.0,79,-99.99,,,0.00,Acu-Link.com,2013-05-18 14:25:00,
2013-05-18 09:40:00,74.1,66.0,29.85,SE,135,3.7,-999.0,76,-99.99,,,0.00,Acu-Link.com,2013-05-18 14:40:00,
2013-05-18 09:56:00,75.6,65.9,29.84,SSW,202,2.2,-999.0,72,-99.99,,,0.00,Acu-Link.com,2013-05-18 14:56:00,
2013-05-18 10:11:00,74.5,65.3,29.83,SSE,157,4.2,-999.0,73,-99.99,,,0.00,Acu-Link.com,2013-05-18 15:11:00,
2013-05-18 10:26:00,76.1,65.6,29.83,East,90,4.7,-999.0,70,-99.99,,,0.00,Acu-Link.com,2013-05-18 15:26:00,
2013-05-18 10:41:00,78.8,65.6,29.83,ESE,112,6.8,-999.0,64,-99.99,,,0.00,Acu-Link.com,2013-05-18 15:41:00,
2013-05-18 10:56:00,76.3,64.5,29.83,ESE,112,4.7,-999.0,67,-99.99,,,0.00,Acu-Link.com,2013-05-18 15:56:00,
2013-05-18 11:11:00,78.8,65.6,29.83,ESE,112,4.7,-999.0,64,-99.99,,,0.00,Acu-Link.com,2013-05-18 16:11:00,
2013-05-18 11:26:00,76.3,64.9,29.83,ESE,112,4.7,-999.0,68,-99.99,,,0.00,Acu-Link.com,2013-05-18 16:26:00,
2013-05-18 11:41:00,79.7,66.9,29.82,South,180,3.2,-999.0,65,-99.99,,,0.00,Acu-Link.com,2013-05-18 16:41:00,
2013-05-18 11:56:00,78.4,65.2,29.82,SSE,157,3.2,-999.0,64,-99.99,,,0.00,Acu-Link.com,2013-05-18 16:56:00,
2013-05-18 12:12:00,77.7,64.5,29.82,SSW,202,3.7,-999.0,64,-99.99,,,0.00,Acu-Link.com,2013-05-18 17:12:00,
2013-05-18 12:27:00,80.2,65.5,29.81,SE,135,6.3,-999.0,61,-99.99,,,0.00,Acu-Link.com,2013-05-18 17:27:00,
2013-05-18 12:42:00,80.8,64.1,29.80,South,180,3.7,-999.0,57,-99.99,,,0.00,Acu-Link.com,2013-05-18 17:42:00,
2013-05-18 12:57:00,81.1,64.9,29.80,SE,135,6.3,-999.0,58,-99.99,,,0.00,Acu-Link.com,2013-05-18 17:57:00,
2013-05-18 13:12:00,82.0,65.7,29.79,SSW,202,3.2,-999.0,58,-99.99,,,0.00,Acu-Link.com,2013-05-18 18:12:00,
2013-05-18 13:27:00,79.5,64.4,29.79,SE,135,4.7,-999.0,60,-99.99,,,0.00,Acu-Link.com,2013-05-18 18:27:00,
2013-05-18 13:42:00,79.3,65.1,29.78,ESE,112,3.2,-999.0,62,-99.99,,,0.00,Acu-Link.com,2013-05-18 18:42:00,
2013-05-18 13:57:00,81.7,64.5,29.77,SW,225,2.2,-999.0,56,-99.99,,,0.00,Acu-Link.com,2013-05-18 18:57:00,
2013-05-18 14:12:00,82.9,65.6,29.77,SSE,157,5.3,-999.0,56,-99.99,,,0.00,Acu-Link.com,2013-05-18 19:12:00,
2013-05-18 14:28:00,81.9,64.6,29.77,SE,135,5.3,-999.0,56,-99.99,,,0.00,Acu-Link.com,2013-05-18 19:28:00,
2013-05-18 14:43:00,81.7,64.5,29.76,ESE,112,6.8,-999.0,56,-99.99,,,0.00,Acu-Link.com,2013-05-18 19:43:00,
2013-05-18 14:58:00,83.8,64.8,29.76,SSE,157,4.7,-999.0,53,-99.99,,,0.00,Acu-Link.com,2013-05-18 19:58:00,
2013-05-18 15:13:00,82.0,64.7,29.75,ESE,112,3.2,-999.0,56,-99.99,,,0.00,Acu-Link.com,2013-05-18 20:13:00,
2013-05-18 15:28:00,81.1,63.9,29.75,SE,135,3.7,-999.0,56,-99.99,,,0.00,Acu-Link.com,2013-05-18 20:28:00,
2013-05-18 15:43:00,82.8,64.4,29.75,SSE,157,4.2,-999.0,54,-99.99,,,0.00,Acu-Link.com,2013-05-18 20:43:00,
2013-05-18 15:58:00,83.3,64.9,29.74,SSW,202,5.8,-999.0,54,-99.99,,,0.00,Acu-Link.com,2013-05-18 20:58:00,
2013-05-18 16:13:00,82.6,64.8,29.75,NNE,22,2.2,-999.0,55,-99.99,,,0.00,Acu-Link.com,2013-05-18 21:13:00,
2013-05-18 16:28:00,82.0,64.2,29.74,East,90,4.7,-999.0,55,-99.99,,,0.00,Acu-Link.com,2013-05-18 21:28:00,
2013-05-18 16:44:00,82.9,65.0,29.75,SSE,157,5.3,-999.0,55,-99.99,,,0.00,Acu-Link.com,2013-05-18 21:44:00,
2013-05-18 16:59:00,81.9,64.1,29.75,SSW,202,5.8,-999.0,55,-99.99,,,0.00,Acu-Link.com,2013-05-18 21:59:00,
2013-05-18 17:14:00,82.2,64.9,29.75,ESE,112,3.2,-999.0,56,-99.99,,,0.00,Acu-Link.com,2013-05-18 22:14:00,
2013-05-18 17:29:00,82.0,64.7,29.76,SSW,202,4.2,-999.0,56,-99.99,,,0.00,Acu-Link.com,2013-05-18 22:29:00,
2013-05-18 17:44:00,82.2,65.9,29.75,South,180,3.7,-999.0,58,-99.99,,,0.00,Acu-Link.com,2013-05-18 22:44:00,
2013-05-18 17:59:00,80.2,64.5,29.75,SSW,202,5.3,-999.0,59,-99.99,,,0.00,Acu-Link.com,2013-05-18 22:59:00,
2013-05-18 18:14:00,80.1,64.9,29.75,ESE,112,4.7,-999.0,60,-99.99,,,0.00,Acu-Link.com,2013-05-18 23:14:00,
2013-05-18 18:29:00,80.4,65.7,29.74,ESE,112,6.3,-999.0,61,-99.99,,,0.00,Acu-Link.com,2013-05-18 23:29:00,
2013-05-18 18:44:00,79.7,65.0,29.74,ESE,112,6.3,-999.0,61,-99.99,,,0.00,Acu-Link.com,2013-05-18 23:44:00,
2013-05-18 19:00:00,78.8,65.1,29.74,South,180,4.2,-999.0,63,-99.99,,,0.00,Acu-Link.com,2013-05-19 00:00:00,
2013-05-18 19:15:00,78.4,65.6,29.73,SSE,157,3.7,-999.0,65,-99.99,,,0.00,Acu-Link.com,2013-05-19 00:15:00,
2013-05-18 19:30:00,77.5,65.2,29.74,SE,135,2.7,-999.0,66,-99.99,,,0.00,Acu-Link.com,2013-05-19 00:30:00,
2013-05-18 19:45:00,77.2,65.8,29.75,SE,135,3.7,-999.0,68,-99.99,,,0.00,Acu-Link.com,2013-05-19 00:45:00,
2013-05-18 20:00:00,76.3,65.8,29.74,SSE,157,2.7,-999.0,70,-99.99,,,0.00,Acu-Link.com,2013-05-19 01:00:00,
2013-05-18 20:15:00,75.4,65.3,29.75,ESE,112,2.7,-999.0,71,-99.99,,,0.00,Acu-Link.com,2013-05-19 01:15:00,
2013-05-18 20:30:00,74.3,65.1,29.75,SE,135,2.2,-999.0,73,-99.99,,,0.00,Acu-Link.com,2013-05-19 01:30:00,
2013-05-18 20:45:00,73.4,65.0,29.75,SSE,157,2.2,-999.0,75,-99.99,,,0.00,Acu-Link.com,2013-05-19 01:45:00,
2013-05-18 21:00:00,72.7,64.7,29.75,SE,135,2.2,-999.0,76,-99.99,,,0.00,Acu-Link.com,2013-05-19 02:00:00,
2013-05-18 21:16:00,72.0,64.8,29.75,SE,135,2.7,-999.0,78,-99.99,,,0.00,Acu-Link.com,2013-05-19 02:16:00,
2013-05-18 21:31:00,71.6,65.1,29.75,SSE,157,2.7,-999.0,80,-99.99,,,0.00,Acu-Link.com,2013-05-19 02:31:00,
2013-05-18 21:46:00,71.2,64.7,29.75,ESE,112,2.7,-999.0,80,-99.99,,,0.00,Acu-Link.com,2013-05-19 02:46:00,
2013-05-18 22:01:00,70.9,64.8,29.75,ESE,112,2.7,-999.0,81,-99.99,,,0.00,Acu-Link.com,2013-05-19 03:01:00,
2013-05-18 22:16:00,70.3,64.5,29.75,SSE,157,2.7,-999.0,82,-99.99,,,0.00,Acu-Link.com,2013-05-19 03:16:00,
2013-05-18 22:31:00,70.0,64.6,29.74,ESE,112,2.2,-999.0,83,-99.99,,,0.00,Acu-Link.com,2013-05-19 03:31:00,
2013-05-18 22:46:00,69.4,64.7,29.74,SE,135,3.2,-999.0,85,-99.99,,,0.00,Acu-Link.com,2013-05-19 03:46:00,
2013-05-18 23:01:00,69.1,64.4,29.73,ESE,112,3.7,-999.0,85,-99.99,,,0.00,Acu-Link.com,2013-05-19 04:01:00,
2013-05-18 23:16:00,68.7,64.3,29.73,East,90,2.7,-999.0,86,-99.99,,,0.00,Acu-Link.com,2013-05-19 04:16:00,
2013-05-18 23:32:00,68.5,64.1,29.73,ESE,112,2.7,-999.0,86,-99.99,,,0.00,Acu-Link.com,2013-05-19 04:32:00,
2013-05-18 23:47:00,68.4,64.4,29.74,ESE,112,2.7,-999.0,87,-99.99,,,0.00,Acu-Link.com,2013-05-19 04:47:00,